Regional Weather Roundup
Issued by NWS Columbia, SC

Home | Current Version | Previous Version | Text Only | Print | Product List | Glossary On
Versions: 1 2 3 4 5 6 7 8 9 10 11 12 13 14 15 16 17 18 19 20 21 22 23 24 25 26 27 28
000
ASUS42 KCAE 300610
RWRCAE
REGIONAL WEATHER ROUNDUP
NATIONAL WEATHER SERVICE COLUMBIA SC
200 AM EDT TUE MAY 30 2017

NOTE: "FAIR" INDICATES FEW OR NO CLOUDS BELOW 12,000 FEET WITH NO
SIGNIFICANT WEATHER AND/OR OBSTRUCTIONS TO VISIBILITY.

NOT ALL STATIONS ARE QUALITY CONTROLLED BY THE NATIONAL
WEATHER SERVICE. USE DATA WITH CAUTION...ESPECIALLY
DEWPOINT OBSERVATIONS.

SCZ001>056-GAZ040-063>065-077-300700-
...UPSTATE SOUTH CAROLINA...

CITY           SKY/WX    TMP DP  RH WIND       PRES   REMARKS
ANDERSON       LGT RAIN  70  68  93 SW3       30.05F
6HR MIN TEMP:  70; 6HR MAX TEMP:  72; 6HR PCP: TRACE;

SPARTANBURG    CLOUDY    68  66  94 CALM      30.03F
CLEMSON        LGT RAIN  69  64  84 CALM      30.05F
6HR MIN TEMP:  69; 6HR MAX TEMP:  73; 6HR PCP:  0.01;

GREENVILLE     LGT RAIN  70  67  90 W8        30.06S
6HR MIN TEMP:  70; 6HR MAX TEMP:  73; 6HR PCP:  0.01;

GREENWOOD      CLOUDY    68  67  96 SW6       30.07S
6HR MIN TEMP:  68; 6HR MAX TEMP:  72;

GREER          CLOUDY    69  67  93 W5        30.03F
6HR MIN TEMP:  69; 6HR MAX TEMP:  72;

ROCK HILL      CLOUDY    68  65  90 CALM      30.05F
6HR MIN TEMP:  66; 6HR MAX TEMP:  70; 6HR PCP:  0.02;

CHESTER        CLOUDY    68  66  94 CALM      30.06S
LAURENS        CLOUDY    68  68 100 S3        30.05S


...CENTRAL SOUTH CAROLINA...

CITY           SKY/WX    TMP DP  RH WIND       PRES   REMARKS
COLUMBIA APT   CLOUDY    70  68  93 CALM      30.04F
6HR MIN TEMP:  70; 6HR MAX TEMP:  74; 6HR PCP:  0.04;

COLUMBIA OWENS MOCLDY    70  69  97 CALM      30.06F
6HR MIN TEMP:  70; 6HR MAX TEMP:  75; 6HR PCP:  0.81;

MCENTIRE ANGB  CLOUDY    68  68 100 CALM      30.05F
6HR MIN TEMP:  68; 6HR MAX TEMP:  75; 6HR PCP:  0.50;

ORANGEBURG     CLOUDY    70  69  97 NW3       30.06R
6HR MIN TEMP:  70; 6HR MAX TEMP:  84; 6HR PCP: TRACE;

SUMTER SHAW    LGT RAIN  70  68  94 CALM      30.03S
6HR MIN TEMP:  70; 6HR MAX TEMP:  85; 6HR PCP:  0.65;

NEWBERRY       CLOUDY    70  70 100 SW5       30.08S FOG
AIKEN          FAIR      66  66 100 CALM      30.09F
BARNWELL       CLOUDY    72  70  94 CALM      30.07R THUNDER
MANNING        FAIR      70  70 100 NW15      30.05R
CAMDEN         CLOUDY    70  70 100 CALM      30.05F
LANCASTER      CLOUDY    68  68 100 CALM      30.05S
WINNSBORO      CLOUDY    68  68 100 CALM      30.06R FOG


...EASTERN AND COASTAL SOUTH CAROLINA...

CITY           SKY/WX    TMP DP  RH WIND       PRES   REMARKS
N MYRTLE BCH   MOCLDY    72  69  90 CALM      30.02F
6HR MIN TEMP:  71; 6HR MAX TEMP:  79; 6HR PCP:  0.04;

CONWAY         FAIR      68  66  94 CALM      30.03S
MARION         MOCLDY    70  68  94 CALM      30.03F
HARTSVILLE     CLOUDY    68  68 100 SW3       30.07R
FLORENCE       TSTM      70  70 100 W3        30.05R FOG
6HR MIN TEMP:  70; 6HR MAX TEMP:  85; 6HR PCP:  0.02;

DARLINGTON     HVY RAIN  70  68  93 SE6       30.06R
6HR MIN TEMP:  70; 6HR MAX TEMP:  85; 6HR PCP:  0.15;

CHARLESTON APT PTCLDY    75  70  84 CALM      30.04S
6HR MIN TEMP:  74; 6HR MAX TEMP:  81;

MOUNT PLEASANT FAIR      73  72  94 CALM      30.04F
WALTERBORO     MOCLDY    72  66  83 CALM      30.05F
BEAUFORT       PTCLDY    78  74  87 W5        30.04S
6HR MIN TEMP:  78; 6HR MAX TEMP:  81;



...EASTERN GEORGIA...

CITY           SKY/WX    TMP DP  RH WIND       PRES   REMARKS
AUGUSTA BUSH F CLEAR     70  67  90 S3        30.05S
6HR MIN TEMP:  70; 6HR MAX TEMP:  78;

AUGUSTA DANIEL CLEAR     71  67  87 SW3       30.06F
6HR MIN TEMP:  71; 6HR MAX TEMP:  73; 6HR PCP: TRACE;

THOMSON        PTCLDY    67  66  97 CALM      30.12F
6HR MIN TEMP:  67; 6HR MAX TEMP:  70;

WASHINGTON     FOG       68  68 100 CALM      30.07F VSB 3/4
CLAXTON        FAIR     N/A N/A N/A CALM      30.05F
SYLVANIA       MOCLDY    75  71  86 CALM      30.07F
6HR MIN TEMP:  74; 6HR MAX TEMP:  85;

STATESBORO     MOCLDY    73  73 100 CALM      30.05F
6HR MIN TEMP:  72; 6HR MAX TEMP:  80;

SAVANNAH       CLEAR     76  71  85 W3        30.04S
6HR MIN TEMP:  76; 6HR MAX TEMP:  87;



...SOUTHERN NORTH CAROLINA...

CITY           SKY/WX    TMP DP  RH WIND       PRES   REMARKS
CHARLOTTE      CLOUDY    69  65  86 S5        30.05S
6HR MIN TEMP:  67; 6HR MAX TEMP:  71; 6HR PCP:  0.01;

MONROE         CLOUDY    67  64  90 CALM      30.03F
6HR MIN TEMP:  67; 6HR MAX TEMP:  74; 6HR PCP: TRACE;

WADESBORO      CLOUDY    68  65  90 CALM      30.03F
6HR MIN TEMP:  67; 6HR MAX TEMP:  81; 6HR PCP:  0.04;

ROCKINGHAM     CLOUDY    66  66 100 S3        30.03F
RUTHERFORDTON  LGT RAIN  67  67 100 N3        30.06S
6HR MIN TEMP:  67; 6HR MAX TEMP:  69; 6HR PCP:  0.02;

ASHEVILLE      CLOUDY    65  62  90 N7        30.10S
6HR MIN TEMP:  65; 6HR MAX TEMP:  68; 6HR PCP:  0.01;


$$




USA.gov is the U.S. government's official web portal to all federal, state and local government web resources and services.